METEOR 1-5

导读

METEOR 1-5是苏联(CIS)“流星”一号系列气象卫星,于1970年6月23日发射入轨。作为苏联第一代气象卫星成员,它运行于近地太阳同步轨道,搭载电视相机、红外探测仪器等气象观测设备,承担全球气象数据采集任务,为气象预报提供关键支持,标志着苏联气象卫星组网进程的推进,也为后续流星系列卫星发展积累了重要技术经验。

Basic Information
目录编号:
4419
目录名称:
METEOR 1-5
国际标识:
1970-047A
轨道中心:
EARTH
卫星名称:
METEOR 1-5
卫星全名:
--
卫星状态:
在轨 (已飞行20535 天)
发射日期:
1970-06-23 UTC
国别 :
俄罗斯(独联体) (CIS)
星等 :
--
This satellite is enrolled in the Space Conjunction Data Service (SCDS) and the current flight risk assessment level is: High Risk
Orbit Information
数据来源 国际轨道数据 AOE轨道数据
星历时间 2026-09-12T00:40:01+0800
10小时前
查看轨道信息
2026-09-11T00:00:00+0800
1天前
查看轨道信息
半长轴 7216.399km 7216.403km
偏心率 0.0039496 0.0039139
轨道倾角 81.218° 81.222°
近地点辐角 165.667° 169.025°
升交点赤经 150.435° 151.449°
平近点角 194.563° 354.171°
近地点 809.76km 810.021km
远地点 866.764km 866.511km
周期 101.681分钟 101.681分钟
每日圈数 14.161915 14.161903
Detailed Information
使用方式:
暂无
2D Orbit Map
3D Orbit Map
Orbit Altitude Analysis Chart
Orbit Inclination Analysis Chart
Orbit Comprehensive Analysis Chart
View Comprehensive Chart
Conjunction Data List
Event ID Objects TCA Miss Dist (km) Collision Risk Probability Collision Risk Index (CRI) Action
CDM_260914-134800-441903-359121
NOAA 19 (33591)
2026-09-14T
13:48:42+0000
0.391 km
远距离
3.365512E-4 高风险 0.86
CDM_260909-132500-441903-030428
2026-09-09T
13:25:55+0000
0.982 km
远距离
2.89123E-5 中风险 0.64
CDM_260909-150700-441903-030428
2026-09-09T
15:07:39+0000
2.877 km
极远距离
1.412075E-6 低风险 0.38
CDM_260912-100400-441906-097225
2026-09-12T
10:04:17+0000
2.922 km
极远距离
1.253208E-6 低风险 0.37
Miss Distance Evolution Trend with All Objects
Collision Probability Evolution Trend with All Objects